Time,TemperatureF,DewpointF,PressureIn,WindDirection,WindDirectionDegrees,WindSpeedMPH,WindSpeedGustMPH,Humidity,HourlyPrecipIn,Conditions,Clouds,dailyrainin,SoftwareType,DateUTC
2013-08-11 00:02:00,58.8,54.3,29.99,SW,221,0.0,0.0,85,0.00,,,0.01,meteohub,2013-08-11 07:02:00,
2013-08-11 00:08:00,58.8,54.3,29.99,SW,221,0.0,0.0,85,0.00,,,0.00,meteohub,2013-08-11 07:08:00,
2013-08-11 00:13:00,58.6,54.5,29.99,SW,221,0.0,0.0,86,0.00,,,0.00,meteohub,2013-08-11 07:13:00,
2013-08-11 00:18:00,58.5,54.3,29.99,SW,221,0.0,1.0,86,0.00,,,0.00,meteohub,2013-08-11 07:18:00,
2013-08-11 00:23:00,58.3,54.1,29.99,SW,221,0.0,1.0,86,0.00,,,0.00,meteohub,2013-08-11 07:23:00,
2013-08-11 00:28:00,58.3,54.5,29.99,SW,221,0.0,1.0,87,0.00,,,0.00,meteohub,2013-08-11 07:28:00,
2013-08-11 00:33:00,58.1,54.3,29.99,SW,221,1.0,1.0,87,0.00,,,0.00,meteohub,2013-08-11 07:33:00,
2013-08-11 00:38:00,57.9,54.3,29.99,SW,221,0.0,1.0,88,0.00,,,0.00,meteohub,2013-08-11 07:38:00,
2013-08-11 00:43:00,57.9,54.3,29.99,SW,221,0.0,2.0,88,0.00,,,0.00,meteohub,2013-08-11 07:43:00,
2013-08-11 00:49:00,58.1,54.5,29.99,SW,221,0.0,2.0,88,0.00,,,0.00,meteohub,2013-08-11 07:49:00,
2013-08-11 00:54:00,58.1,54.5,29.99,SW,221,0.0,2.0,88,0.00,,,0.00,meteohub,2013-08-11 07:54:00,
2013-08-11 00:59:00,58.1,54.5,29.99,SW,221,1.0,1.0,88,0.00,,,0.00,meteohub,2013-08-11 07:59:00,
2013-08-11 01:04:00,58.1,54.3,29.99,SW,221,0.0,1.0,87,0.00,,,0.00,meteohub,2013-08-11 08:04:00,
2013-08-11 01:09:00,58.1,54.3,29.98,SW,221,0.0,1.0,87,0.00,,,0.00,meteohub,2013-08-11 08:09:00,
2013-08-11 01:14:00,58.1,54.3,29.98,SW,221,0.0,1.0,87,0.00,,,0.00,meteohub,2013-08-11 08:14:00,
2013-08-11 01:19:00,57.7,53.6,29.99,SW,221,0.0,1.0,86,0.00,,,0.00,meteohub,2013-08-11 08:19:00,
2013-08-11 01:25:00,57.7,53.2,29.98,SW,221,0.0,1.0,85,0.00,,,0.00,meteohub,2013-08-11 08:25:00,
2013-08-11 01:30:00,57.4,52.5,29.98,SW,221,0.0,0.0,84,0.00,,,0.00,meteohub,2013-08-11 08:30:00,
2013-08-11 01:35:00,57.0,52.2,29.98,SW,221,0.0,0.0,84,0.00,,,0.00,meteohub,2013-08-11 08:35:00,
2013-08-11 01:40:00,56.7,52.2,29.98,SW,221,0.0,0.0,85,0.00,,,0.00,meteohub,2013-08-11 08:40:00,
2013-08-11 01:45:00,56.5,52.0,29.98,SW,221,0.0,0.0,85,0.00,,,0.00,meteohub,2013-08-11 08:45:00,
2013-08-11 01:50:00,55.9,51.4,29.98,SW,221,0.0,0.0,85,0.00,,,0.00,meteohub,2013-08-11 08:50:00,
2013-08-11 01:55:00,55.6,51.1,29.98,SW,221,0.0,0.0,85,0.00,,,0.00,meteohub,2013-08-11 08:55:00,
2013-08-11 02:00:00,55.2,51.1,29.98,SW,221,0.0,0.0,86,0.00,,,0.00,meteohub,2013-08-11 09:00:00,
2013-08-11 02:06:00,55.0,50.9,29.97,SW,221,0.0,0.0,86,0.00,,,0.00,meteohub,2013-08-11 09:06:00,
2013-08-11 02:11:00,54.7,50.5,29.98,SW,221,0.0,0.0,86,0.00,,,0.00,meteohub,2013-08-11 09:11:00,
2013-08-11 02:16:00,54.3,50.5,29.98,SW,221,0.0,0.0,87,0.00,,,0.00,meteohub,2013-08-11 09:16:00,
2013-08-11 02:21:00,54.1,50.4,29.97,SW,221,0.0,0.0,87,0.00,,,0.00,meteohub,2013-08-11 09:21:00,
2013-08-11 02:27:00,54.0,50.2,29.97,SW,221,0.0,0.0,87,0.00,,,0.00,meteohub,2013-08-11 09:27:00,
2013-08-11 02:32:00,53.8,50.4,29.97,SW,221,0.0,0.0,88,0.00,,,0.00,meteohub,2013-08-11 09:32:00,
2013-08-11 02:37:00,53.4,50.0,29.97,SW,221,0.0,0.0,88,0.00,,,0.00,meteohub,2013-08-11 09:37:00,
2013-08-11 02:42:00,53.2,49.8,29.98,SW,221,0.0,0.0,88,0.00,,,0.00,meteohub,2013-08-11 09:42:00,
2013-08-11 02:47:00,53.1,49.6,29.97,SW,221,0.0,0.0,88,0.00,,,0.00,meteohub,2013-08-11 09:47:00,
2013-08-11 02:52:00,52.9,49.6,29.97,SW,221,0.0,0.0,89,0.00,,,0.00,meteohub,2013-08-11 09:52:00,
2013-08-11 02:57:00,52.9,49.6,29.97,SW,221,0.0,0.0,89,0.00,,,0.00,meteohub,2013-08-11 09:57:00,
2013-08-11 03:02:00,52.5,49.6,29.97,SW,221,0.0,0.0,90,0.00,,,0.00,meteohub,2013-08-11 10:02:00,
2013-08-11 03:08:00,52.5,50.0,29.97,SW,221,0.0,0.0,91,0.00,,,0.00,meteohub,2013-08-11 10:08:00,
2013-08-11 03:13:00,52.3,49.8,29.97,SW,221,0.0,0.0,91,0.00,,,0.00,meteohub,2013-08-11 10:13:00,
2013-08-11 03:18:00,52.2,49.6,29.97,SW,221,0.0,0.0,91,0.00,,,0.00,meteohub,2013-08-11 10:18:00,
2013-08-11 03:23:00,52.2,49.6,29.97,SW,221,0.0,0.0,91,0.00,,,0.00,meteohub,2013-08-11 10:23:00,
2013-08-11 03:28:00,52.0,49.6,29.97,SW,221,0.0,0.0,92,0.00,,,0.00,meteohub,2013-08-11 10:28:00,
2013-08-11 03:33:00,51.8,49.6,29.97,SW,221,0.0,0.0,92,0.00,,,0.00,meteohub,2013-08-11 10:33:00,
2013-08-11 03:38:00,51.6,49.5,29.97,SW,221,0.0,0.0,92,0.00,,,0.00,meteohub,2013-08-11 10:38:00,
2013-08-11 03:43:00,51.6,49.5,29.97,SW,221,0.0,0.0,92,0.00,,,0.00,meteohub,2013-08-11 10:43:00,
2013-08-11 03:48:00,51.4,49.5,29.97,SW,221,0.0,0.0,93,0.00,,,0.00,meteohub,2013-08-11 10:48:00,
2013-08-11 03:54:00,51.4,49.5,29.97,SW,221,0.0,0.0,93,0.00,,,0.00,meteohub,2013-08-11 10:54:00,
2013-08-11 04:00:00,51.3,49.3,29.97,SW,221,0.0,0.0,93,0.00,,,0.00,meteohub,2013-08-11 11:00:00,
2013-08-11 04:05:00,51.3,49.3,29.97,SW,221,0.0,0.0,93,0.00,,,0.00,meteohub,2013-08-11 11:05:00,
2013-08-11 04:10:00,51.1,49.1,29.97,SW,221,0.0,0.0,93,0.00,,,0.00,meteohub,2013-08-11 11:10:00,
2013-08-11 04:15:00,51.1,49.5,29.97,SW,221,0.0,0.0,94,0.00,,,0.00,meteohub,2013-08-11 11:15:00,
2013-08-11 04:20:00,51.1,49.5,29.97,SW,221,0.0,0.0,94,0.00,,,0.00,meteohub,2013-08-11 11:20:00,
2013-08-11 04:25:00,51.1,49.5,29.97,SW,221,0.0,0.0,94,0.00,,,0.00,meteohub,2013-08-11 11:25:00,
2013-08-11 04:30:00,51.1,49.6,29.97,SW,221,0.0,0.0,95,0.00,,,0.00,meteohub,2013-08-11 11:30:00,
2013-08-11 04:35:00,51.1,49.6,29.97,SW,221,0.0,0.0,95,0.00,,,0.00,meteohub,2013-08-11 11:35:00,
2013-08-11 04:41:00,51.1,49.6,29.97,SW,221,0.0,0.0,95,0.00,,,0.00,meteohub,2013-08-11 11:41:00,
2013-08-11 04:46:00,51.1,49.6,29.97,SW,221,0.0,0.0,95,0.00,,,0.00,meteohub,2013-08-11 11:46:00,
2013-08-11 04:51:00,51.1,49.6,29.97,SW,221,0.0,0.0,95,0.00,,,0.00,meteohub,2013-08-11 11:51:00,
2013-08-11 04:56:00,51.1,49.5,29.97,SW,221,0.0,0.0,94,0.00,,,0.00,meteohub,2013-08-11 11:56:00,
2013-08-11 05:01:00,50.9,49.3,29.97,SW,221,0.0,0.0,94,0.00,,,0.00,meteohub,2013-08-11 12:01:00,
2013-08-11 05:06:00,50.7,49.1,29.97,SW,221,0.0,0.0,94,0.00,,,0.00,meteohub,2013-08-11 12:06:00,
2013-08-11 05:11:00,50.7,49.3,29.97,SW,221,0.0,0.0,95,0.00,,,0.00,meteohub,2013-08-11 12:11:00,
2013-08-11 05:17:00,50.7,49.3,29.97,SW,221,0.0,0.0,95,0.00,,,0.00,meteohub,2013-08-11 12:17:00,
2013-08-11 05:22:00,50.9,49.5,29.97,SW,221,0.0,0.0,95,0.00,,,0.00,meteohub,2013-08-11 12:22:00,
2013-08-11 05:27:00,50.9,49.5,29.97,SW,221,0.0,0.0,95,0.00,,,0.00,meteohub,2013-08-11 12:27:00,
2013-08-11 05:32:00,50.7,49.3,29.97,SW,221,0.0,0.0,95,0.00,,,0.00,meteohub,2013-08-11 12:32:00,
2013-08-11 05:37:00,50.7,49.3,29.97,SW,221,0.0,0.0,95,0.00,,,0.00,meteohub,2013-08-11 12:37:00,
2013-08-11 05:42:00,50.7,49.3,29.97,SW,221,0.0,0.0,95,0.00,,,0.00,meteohub,2013-08-11 12:42:00,
2013-08-11 05:47:00,50.7,49.3,29.97,SW,221,0.0,0.0,95,0.00,,,0.00,meteohub,2013-08-11 12:47:00,
2013-08-11 05:52:00,50.7,49.3,29.97,SW,221,0.0,0.0,95,0.00,,,0.00,meteohub,2013-08-11 12:52:00,
2013-08-11 05:58:00,50.7,49.6,29.97,SW,221,0.0,0.0,96,0.00,,,0.00,meteohub,2013-08-11 12:58:00,
2013-08-11 06:03:00,50.7,49.6,29.97,SW,221,0.0,0.0,96,0.00,,,0.00,meteohub,2013-08-11 13:03:00,
2013-08-11 06:08:00,50.7,49.6,29.97,SW,221,0.0,0.0,96,0.00,,,0.00,meteohub,2013-08-11 13:08:00,
2013-08-11 06:13:00,50.5,49.5,29.97,SW,221,0.0,0.0,96,0.00,,,0.00,meteohub,2013-08-11 13:13:00,
2013-08-11 06:18:00,50.5,49.1,29.98,SW,221,0.0,0.0,95,0.00,,,0.00,meteohub,2013-08-11 13:18:00,
2013-08-11 06:23:00,50.5,49.5,29.98,SW,221,0.0,0.0,96,0.00,,,0.00,meteohub,2013-08-11 13:23:00,
2013-08-11 06:28:00,50.5,49.5,29.98,SW,221,0.0,0.0,96,0.00,,,0.00,meteohub,2013-08-11 13:28:00,
2013-08-11 06:33:00,50.5,49.5,29.98,SW,221,0.0,0.0,96,0.00,,,0.00,meteohub,2013-08-11 13:33:00,
2013-08-11 06:38:00,50.5,49.5,29.98,SW,221,0.0,0.0,96,0.00,,,0.00,meteohub,2013-08-11 13:38:00,
2013-08-11 06:44:00,50.5,49.5,29.98,SW,221,0.0,0.0,96,0.00,,,0.00,meteohub,2013-08-11 13:44:00,
2013-08-11 06:49:00,50.5,49.5,29.98,SW,221,0.0,0.0,96,0.00,,,0.00,meteohub,2013-08-11 13:49:00,
2013-08-11 06:55:00,50.5,49.5,29.98,SW,221,0.0,0.0,96,0.00,,,0.00,meteohub,2013-08-11 13:55:00,
2013-08-11 07:00:00,50.7,49.6,29.98,SW,221,0.0,0.0,96,0.00,,,0.00,meteohub,2013-08-11 14:00:00,
2013-08-11 07:05:00,50.7,49.6,29.98,SW,221,0.0,0.0,96,0.00,,,0.00,meteohub,2013-08-11 14:05:00,
2013-08-11 07:10:00,50.9,49.8,29.98,SW,221,0.0,0.0,96,0.00,,,0.00,meteohub,2013-08-11 14:10:00,
2013-08-11 07:16:00,51.1,50.0,29.98,SW,221,0.0,0.0,96,0.00,,,0.00,meteohub,2013-08-11 14:16:00,
2013-08-11 07:21:00,51.1,50.2,29.98,SW,221,0.0,0.0,97,0.00,,,0.00,meteohub,2013-08-11 14:21:00,
2013-08-11 07:26:00,51.4,50.5,29.99,SW,221,0.0,0.0,97,0.00,,,0.00,meteohub,2013-08-11 14:26:00,
2013-08-11 07:31:00,51.6,50.7,29.99,SW,221,0.0,0.0,97,0.00,,,0.00,meteohub,2013-08-11 14:31:00,
2013-08-11 07:36:00,52.2,51.3,29.99,SW,221,0.0,0.0,97,0.00,,,0.00,meteohub,2013-08-11 14:36:00,
2013-08-11 07:42:00,52.7,52.2,29.99,SW,221,0.0,0.0,98,0.00,,,0.00,meteohub,2013-08-11 14:42:00,
2013-08-11 07:47:00,53.2,52.7,29.99,SW,221,0.0,0.0,98,0.00,,,0.00,meteohub,2013-08-11 14:47:00,
2013-08-11 07:52:00,53.8,53.2,29.99,SW,221,0.0,0.0,98,0.00,,,0.00,meteohub,2013-08-11 14:52:00,
2013-08-11 07:57:00,54.0,53.4,29.99,SW,221,0.0,0.0,98,0.00,,,0.00,meteohub,2013-08-11 14:57:00,
2013-08-11 08:02:00,54.3,53.8,29.99,ESE,103,0.0,0.0,98,0.00,,,0.00,meteohub,2013-08-11 15:02:00,
2013-08-11 08:07:00,54.9,54.3,29.99,ESE,103,0.0,0.0,98,0.00,,,0.00,meteohub,2013-08-11 15:07:00,
2013-08-11 08:12:00,55.2,54.7,29.99,ESE,103,0.0,0.0,98,0.00,,,0.00,meteohub,2013-08-11 15:12:00,
2013-08-11 08:17:00,55.9,55.4,29.99,ESE,103,0.0,0.0,98,0.00,,,0.00,meteohub,2013-08-11 15:17:00,
2013-08-11 08:22:00,56.7,55.8,29.99,ESE,103,0.0,0.0,97,0.00,,,0.00,meteohub,2013-08-11 15:22:00,
2013-08-11 08:27:00,57.4,56.3,29.99,ESE,103,0.0,0.0,96,0.00,,,0.00,meteohub,2013-08-11 15:27:00,
2013-08-11 08:33:00,58.3,56.5,29.99,ESE,103,0.0,1.0,94,0.00,,,0.00,meteohub,2013-08-11 15:33:00,
2013-08-11 08:38:00,59.5,56.3,29.99,ESE,103,0.0,1.0,89,0.00,,,0.00,meteohub,2013-08-11 15:38:00,
2013-08-11 08:44:00,60.3,56.1,29.99,ESE,103,0.0,1.0,86,0.00,,,0.00,meteohub,2013-08-11 15:44:00,
2013-08-11 08:49:00,61.0,56.5,29.99,ESE,103,0.0,1.0,85,0.00,,,0.00,meteohub,2013-08-11 15:49:00,
2013-08-11 08:54:00,61.5,56.7,29.99,ESE,105,1.0,2.0,84,0.00,,,0.00,meteohub,2013-08-11 15:54:00,
2013-08-11 08:59:00,62.1,56.1,29.99,South,169,1.0,4.0,81,0.00,,,0.00,meteohub,2013-08-11 15:59:00,
2013-08-11 09:04:00,62.6,55.9,29.99,South,169,3.0,4.0,79,0.00,,,0.00,meteohub,2013-08-11 16:04:00,
2013-08-11 09:09:00,63.0,55.9,29.99,SSW,193,1.0,4.0,78,0.00,,,0.00,meteohub,2013-08-11 16:09:00,
2013-08-11 09:14:00,63.1,55.8,29.99,SSW,196,3.0,4.0,77,0.00,,,0.00,meteohub,2013-08-11 16:14:00,
2013-08-11 09:19:00,63.5,56.1,29.99,SSW,196,3.0,4.0,77,0.00,,,0.00,meteohub,2013-08-11 16:19:00,
2013-08-11 09:24:00,63.7,55.6,29.99,SSW,196,3.0,4.0,75,0.00,,,0.00,meteohub,2013-08-11 16:24:00,
2013-08-11 09:30:00,63.9,55.0,29.99,SSW,196,2.0,4.0,73,0.00,,,0.00,meteohub,2013-08-11 16:30:00,
2013-08-11 09:35:00,64.0,55.6,29.99,SSW,196,2.0,4.0,74,0.00,,,0.00,meteohub,2013-08-11 16:35:00,
2013-08-11 09:40:00,64.2,55.8,29.99,SSW,196,4.0,4.0,74,0.00,,,0.00,meteohub,2013-08-11 16:40:00,
2013-08-11 09:45:00,64.6,56.1,29.98,SSW,196,2.0,4.0,74,0.00,,,0.00,meteohub,2013-08-11 16:45:00,
2013-08-11 09:50:00,64.9,56.5,29.99,SSW,196,5.0,5.0,74,0.00,,,0.00,meteohub,2013-08-11 16:50:00,
2013-08-11 09:56:00,64.9,56.5,29.99,SSW,196,1.0,5.0,74,0.00,,,0.00,meteohub,2013-08-11 16:56:00,
2013-08-11 10:01:00,64.9,56.5,29.99,SSW,196,1.0,5.0,74,0.00,,,0.00,meteohub,2013-08-11 17:01:00,
2013-08-11 10:06:00,65.1,56.3,29.99,SSW,196,3.0,5.0,73,0.00,,,0.00,meteohub,2013-08-11 17:06:00,
2013-08-11 10:11:00,65.3,56.1,29.99,SSW,196,3.0,5.0,72,0.00,,,0.00,meteohub,2013-08-11 17:11:00,
2013-08-11 10:16:00,65.8,56.5,29.99,SSW,196,2.0,5.0,72,0.00,,,0.00,meteohub,2013-08-11 17:16:00,
2013-08-11 10:21:00,66.4,56.3,29.99,SSW,196,4.0,4.0,70,0.00,,,0.00,meteohub,2013-08-11 17:21:00,
2013-08-11 10:27:00,66.9,56.8,29.99,SSW,196,4.0,5.0,70,0.00,,,0.00,meteohub,2013-08-11 17:27:00,
2013-08-11 10:32:00,67.1,56.7,29.99,South,187,4.0,5.0,69,0.00,,,0.00,meteohub,2013-08-11 17:32:00,
2013-08-11 10:37:00,67.3,56.3,29.99,South,187,4.0,6.0,68,0.00,,,0.00,meteohub,2013-08-11 17:37:00,
2013-08-11 10:42:00,67.3,56.8,29.99,SSW,208,3.0,6.0,69,0.00,,,0.00,meteohub,2013-08-11 17:42:00,
2013-08-11 10:47:00,67.6,56.7,29.99,SSW,209,3.0,6.0,68,0.00,,,0.00,meteohub,2013-08-11 17:47:00,
2013-08-11 10:52:00,67.5,57.0,29.99,South,172,5.0,6.0,69,0.00,,,0.00,meteohub,2013-08-11 17:52:00,
2013-08-11 10:57:00,67.8,57.2,29.99,SW,218,5.0,6.0,69,0.00,,,0.00,meteohub,2013-08-11 17:57:00,
2013-08-11 11:02:00,68.2,57.6,29.99,SSW,211,4.0,6.0,69,0.00,,,0.00,meteohub,2013-08-11 18:02:00,
2013-08-11 11:07:00,68.5,57.2,29.99,SSW,211,2.0,6.0,67,0.00,,,0.00,meteohub,2013-08-11 18:07:00,
2013-08-11 11:12:00,68.7,57.7,29.99,SSW,211,4.0,6.0,68,0.00,,,0.00,meteohub,2013-08-11 18:12:00,
2013-08-11 11:17:00,69.3,57.9,29.99,SSW,211,1.0,6.0,67,0.00,,,0.00,meteohub,2013-08-11 18:17:00,
2013-08-11 11:22:00,70.0,57.7,29.98,SSW,203,4.0,5.0,65,0.00,,,0.00,meteohub,2013-08-11 18:22:00,
2013-08-11 11:28:00,70.3,58.1,29.98,SW,217,2.0,7.0,65,0.00,,,0.00,meteohub,2013-08-11 18:28:00,
2013-08-11 11:33:00,70.5,57.7,29.98,SW,216,5.0,7.0,64,0.00,,,0.00,meteohub,2013-08-11 18:33:00,
2013-08-11 11:38:00,71.1,58.3,29.98,SW,230,3.0,7.0,64,0.00,,,0.00,meteohub,2013-08-11 18:38:00,
2013-08-11 11:43:00,70.9,57.7,29.98,SW,221,5.0,6.0,63,0.00,,,0.00,meteohub,2013-08-11 18:43:00,
2013-08-11 11:48:00,71.2,57.9,29.98,SW,221,2.0,6.0,63,0.00,,,0.00,meteohub,2013-08-11 18:48:00,
2013-08-11 11:53:00,71.4,57.7,29.98,SW,221,4.0,7.0,62,0.00,,,0.00,meteohub,2013-08-11 18:53:00,
2013-08-11 11:58:00,71.8,57.6,29.98,WSW,252,3.0,7.0,61,0.00,,,0.00,meteohub,2013-08-11 18:58:00,
2013-08-11 12:04:00,72.0,57.7,29.98,SSW,213,1.0,7.0,61,0.00,,,0.00,meteohub,2013-08-11 19:04:00,
2013-08-11 12:09:00,72.7,57.9,29.98,SW,234,2.0,7.0,60,0.00,,,0.00,meteohub,2013-08-11 19:09:00,
2013-08-11 12:14:00,73.0,58.3,29.98,SSW,194,5.0,7.0,60,0.00,,,0.00,meteohub,2013-08-11 19:14:00,
2013-08-11 12:19:00,73.2,58.5,29.98,South,182,2.0,7.0,60,0.00,,,0.00,meteohub,2013-08-11 19:19:00,
2013-08-11 12:25:00,73.8,58.5,29.98,SSW,194,3.0,7.0,59,0.00,,,0.00,meteohub,2013-08-11 19:25:00,
2013-08-11 12:30:00,74.1,58.5,29.98,SW,236,3.0,7.0,58,0.00,,,0.00,meteohub,2013-08-11 19:30:00,
2013-08-11 12:35:00,74.7,58.5,29.98,SSW,203,5.0,7.0,57,0.00,,,0.00,meteohub,2013-08-11 19:35:00,
2013-08-11 12:40:00,74.8,58.6,29.98,SSW,197,3.0,7.0,57,0.00,,,0.00,meteohub,2013-08-11 19:40:00,
2013-08-11 12:46:00,75.2,58.5,29.98,SSW,200,4.0,8.0,56,0.00,,,0.00,meteohub,2013-08-11 19:46:00,
2013-08-11 12:51:00,75.0,58.3,29.98,SSW,194,5.0,9.0,56,0.00,,,0.00,meteohub,2013-08-11 19:51:00,
2013-08-11 12:56:00,75.4,58.1,29.98,South,174,3.0,9.0,55,0.00,,,0.00,meteohub,2013-08-11 19:56:00,
2013-08-11 13:01:00,75.6,57.7,29.98,SSE,167,4.0,9.0,54,0.00,,,0.00,meteohub,2013-08-11 20:01:00,
2013-08-11 13:07:00,75.4,58.6,29.97,SSW,208,7.0,8.0,56,0.00,,,0.00,meteohub,2013-08-11 20:07:00,
2013-08-11 13:12:00,75.6,57.7,29.97,SW,214,6.0,8.0,54,0.00,,,0.00,meteohub,2013-08-11 20:12:00,
2013-08-11 13:17:00,75.9,58.6,29.97,South,191,2.0,8.0,55,0.00,,,0.00,meteohub,2013-08-11 20:17:00,
2013-08-11 13:22:00,76.3,57.9,29.97,SW,217,5.0,8.0,53,0.00,,,0.00,meteohub,2013-08-11 20:22:00,
2013-08-11 13:27:00,76.5,57.6,29.97,South,182,8.0,9.0,52,0.00,,,0.00,meteohub,2013-08-11 20:27:00,
2013-08-11 13:32:00,76.5,57.6,29.97,SW,232,4.0,9.0,52,0.00,,,0.00,meteohub,2013-08-11 20:32:00,
2013-08-11 13:37:00,76.6,57.7,29.97,SW,221,3.0,9.0,52,0.00,,,0.00,meteohub,2013-08-11 20:37:00,
2013-08-11 13:42:00,76.6,57.7,29.97,SSW,211,2.0,9.0,52,0.00,,,0.00,meteohub,2013-08-11 20:42:00,
2013-08-11 13:47:00,77.2,58.3,29.97,SW,217,4.0,9.0,52,0.00,,,0.00,meteohub,2013-08-11 20:47:00,
2013-08-11 13:52:00,77.7,58.1,29.97,West,263,5.0,9.0,51,0.00,,,0.00,meteohub,2013-08-11 20:52:00,
2013-08-11 13:57:00,78.3,58.6,29.97,SW,227,3.0,10.0,51,0.00,,,0.00,meteohub,2013-08-11 20:57:00,
2013-08-11 14:02:00,78.6,58.5,29.97,SW,225,9.0,10.0,50,0.00,,,0.00,meteohub,2013-08-11 21:02:00,
2013-08-11 14:07:00,78.6,59.0,29.97,SW,215,4.0,10.0,51,0.00,,,0.00,meteohub,2013-08-11 21:07:00,
2013-08-11 14:12:00,78.8,59.2,29.96,SW,230,6.0,9.0,51,0.00,,,0.00,meteohub,2013-08-11 21:12:00,
2013-08-11 14:17:00,78.4,58.3,29.96,South,176,3.0,10.0,50,0.00,,,0.00,meteohub,2013-08-11 21:17:00,
2013-08-11 14:22:00,78.6,59.0,29.96,South,179,2.0,10.0,51,0.00,,,0.00,meteohub,2013-08-11 21:22:00,
2013-08-11 14:27:00,79.2,59.0,29.96,SW,227,4.0,10.0,50,0.00,,,0.00,meteohub,2013-08-11 21:27:00,
2013-08-11 14:33:00,79.9,59.5,29.96,WSW,242,4.0,10.0,50,0.00,,,0.00,meteohub,2013-08-11 21:33:00,
2013-08-11 14:38:00,80.2,59.4,29.96,SSW,205,3.0,10.0,49,0.00,,,0.00,meteohub,2013-08-11 21:38:00,
2013-08-11 14:43:00,80.1,59.2,29.96,SSE,163,9.0,9.0,49,0.00,,,0.00,meteohub,2013-08-11 21:43:00,
2013-08-11 14:48:00,79.5,58.6,29.96,SSE,159,6.0,12.0,49,0.00,,,0.00,meteohub,2013-08-11 21:48:00,
2013-08-11 14:53:00,79.5,59.2,29.96,SSW,208,5.0,12.0,50,0.00,,,0.00,meteohub,2013-08-11 21:53:00,
2013-08-11 14:58:00,79.7,58.8,29.96,SW,226,3.0,12.0,49,0.00,,,0.00,meteohub,2013-08-11 21:58:00,
2013-08-11 15:04:00,79.9,59.0,29.96,WSW,240,3.0,9.0,49,0.00,,,0.00,meteohub,2013-08-11 22:04:00,
2013-08-11 15:09:00,80.2,58.8,29.95,SE,146,2.0,9.0,48,0.00,,,0.00,meteohub,2013-08-11 22:09:00,
2013-08-11 15:14:00,80.1,58.1,29.95,SW,218,6.0,9.0,47,0.00,,,0.00,meteohub,2013-08-11 22:14:00,
2013-08-11 15:19:00,80.2,58.8,29.95,SSW,207,3.0,9.0,48,0.00,,,0.00,meteohub,2013-08-11 22:19:00,
2013-08-11 15:24:00,80.6,59.2,29.95,SSW,197,8.0,9.0,48,0.00,,,0.00,meteohub,2013-08-11 22:24:00,
2013-08-11 15:29:00,80.8,58.6,29.94,SSW,207,3.0,11.0,47,0.00,,,0.00,meteohub,2013-08-11 22:29:00,
2013-08-11 15:34:00,80.8,58.6,29.94,WSW,242,4.0,11.0,47,0.00,,,0.00,meteohub,2013-08-11 22:34:00,
2013-08-11 15:39:00,81.1,59.0,29.94,SSW,206,3.0,11.0,47,0.00,,,0.00,meteohub,2013-08-11 22:39:00,
2013-08-11 15:44:00,81.1,58.5,29.94,South,187,6.0,9.0,46,0.00,,,0.00,meteohub,2013-08-11 22:44:00,
2013-08-11 15:50:00,81.0,58.8,29.94,South,184,2.0,11.0,47,0.00,,,0.00,meteohub,2013-08-11 22:50:00,
2013-08-11 15:55:00,81.1,58.5,29.94,South,171,5.0,11.0,46,0.00,,,0.00,meteohub,2013-08-11 22:55:00,
2013-08-11 16:00:00,81.3,58.6,29.94,SSE,159,8.0,11.0,46,0.00,,,0.00,meteohub,2013-08-11 23:00:00,
2013-08-11 16:05:00,81.0,57.6,29.94,SW,223,2.0,11.0,45,0.00,,,0.00,meteohub,2013-08-11 23:05:00,
2013-08-11 16:10:00,81.0,57.6,29.93,SSW,194,4.0,11.0,45,0.00,,,0.00,meteohub,2013-08-11 23:10:00,
2013-08-11 16:15:00,81.1,57.7,29.93,SSW,212,3.0,11.0,45,0.00,,,0.00,meteohub,2013-08-11 23:15:00,
2013-08-11 16:21:00,81.5,57.6,29.93,WSW,256,5.0,11.0,44,0.00,,,0.00,meteohub,2013-08-11 23:21:00,
2013-08-11 16:26:00,81.7,57.0,29.93,SSW,204,5.0,10.0,43,0.00,,,0.00,meteohub,2013-08-11 23:26:00,
2013-08-11 16:31:00,81.5,56.8,29.93,SSW,199,6.0,10.0,43,0.00,,,0.00,meteohub,2013-08-11 23:31:00,
2013-08-11 16:36:00,81.3,56.7,29.93,SW,216,9.0,10.0,43,0.00,,,0.00,meteohub,2013-08-11 23:36:00,
2013-08-11 16:41:00,81.0,57.0,29.93,WSW,249,4.0,11.0,44,0.00,,,0.00,meteohub,2013-08-11 23:41:00,
2013-08-11 16:47:00,81.0,57.0,29.92,West,279,4.0,11.0,44,0.00,,,0.00,meteohub,2013-08-11 23:47:00,
2013-08-11 16:52:00,81.1,57.2,29.92,SSW,212,5.0,11.0,44,0.00,,,0.00,meteohub,2013-08-11 23:52:00,
2013-08-11 16:57:00,81.3,57.4,29.92,SSW,205,2.0,9.0,44,0.00,,,0.00,meteohub,2013-08-11 23:57:00,
2013-08-11 17:02:00,81.3,56.7,29.92,SSW,210,4.0,11.0,43,0.00,,,0.00,meteohub,2013-08-12 00:02:00,
2013-08-11 17:07:00,81.1,56.5,29.92,West,267,5.0,11.0,43,0.00,,,0.00,meteohub,2013-08-12 00:07:00,
2013-08-11 17:12:00,81.1,56.5,29.92,WSW,250,3.0,11.0,43,0.00,,,0.00,meteohub,2013-08-12 00:12:00,
2013-08-11 17:17:00,81.0,55.8,29.92,SSE,163,4.0,10.0,42,0.00,,,0.00,meteohub,2013-08-12 00:17:00,
2013-08-11 17:22:00,80.4,55.2,29.92,SW,215,3.0,13.0,42,0.00,,,0.00,meteohub,2013-08-12 00:22:00,
2013-08-11 17:27:00,80.2,55.0,29.91,West,277,5.0,13.0,42,0.00,,,0.00,meteohub,2013-08-12 00:27:00,
2013-08-11 17:32:00,80.1,54.9,29.92,SSW,200,2.0,13.0,42,0.00,,,0.00,meteohub,2013-08-12 00:32:00,
2013-08-11 17:37:00,80.1,55.6,29.91,SW,215,3.0,10.0,43,0.00,,,0.00,meteohub,2013-08-12 00:37:00,
2013-08-11 17:42:00,79.9,55.9,29.92,SW,233,6.0,9.0,44,0.00,,,0.00,meteohub,2013-08-12 00:42:00,
2013-08-11 17:47:00,79.9,55.9,29.92,South,173,4.0,9.0,44,0.00,,,0.00,meteohub,2013-08-12 00:47:00,
2013-08-11 17:52:00,79.9,55.9,29.92,SW,228,4.0,9.0,44,0.00,,,0.00,meteohub,2013-08-12 00:52:00,
2013-08-11 17:57:00,79.5,56.3,29.92,SW,227,4.0,9.0,45,0.00,,,0.00,meteohub,2013-08-12 00:57:00,
2013-08-11 18:02:00,79.5,56.3,29.91,SW,233,5.0,8.0,45,0.00,,,0.00,meteohub,2013-08-12 01:02:00,
2013-08-11 18:07:00,79.3,57.4,29.91,South,191,2.0,8.0,47,0.00,,,0.00,meteohub,2013-08-12 01:07:00,
2013-08-11 18:12:00,79.2,55.9,29.91,SSW,200,3.0,8.0,45,0.00,,,0.00,meteohub,2013-08-12 01:12:00,
2013-08-11 18:18:00,79.0,55.8,29.91,SSW,199,4.0,8.0,45,0.00,,,0.00,meteohub,2013-08-12 01:18:00,
2013-08-11 18:23:00,78.4,55.4,29.91,SSW,198,4.0,8.0,45,0.00,,,0.00,meteohub,2013-08-12 01:23:00,
2013-08-11 18:28:00,78.1,55.0,29.91,South,190,5.0,8.0,45,0.00,,,0.00,meteohub,2013-08-12 01:28:00,
2013-08-11 18:33:00,77.9,54.9,29.91,SSW,207,3.0,8.0,45,0.00,,,0.00,meteohub,2013-08-12 01:33:00,
2013-08-11 18:38:00,77.7,55.2,29.91,SSW,213,5.0,8.0,46,0.00,,,0.00,meteohub,2013-08-12 01:38:00,
2013-08-11 18:43:00,77.5,54.0,29.91,South,178,4.0,8.0,44,0.00,,,0.00,meteohub,2013-08-12 01:43:00,
2013-08-11 18:48:00,77.4,54.3,29.91,SW,219,3.0,7.0,45,0.00,,,0.00,meteohub,2013-08-12 01:48:00,
2013-08-11 18:53:00,76.8,54.5,29.91,SSW,197,7.0,7.0,46,0.00,,,0.00,meteohub,2013-08-12 01:53:00,
2013-08-11 18:59:00,76.6,54.9,29.91,WSW,241,3.0,7.0,47,0.00,,,0.00,meteohub,2013-08-12 01:59:00,
2013-08-11 19:03:00,76.5,54.7,29.91,SSW,205,4.0,7.0,47,0.00,,,0.00,meteohub,2013-08-12 02:03:00,
2013-08-11 19:09:00,75.9,54.3,29.91,SSW,193,5.0,7.0,47,0.00,,,0.00,meteohub,2013-08-12 02:09:00,
2013-08-11 19:14:00,75.7,54.7,29.91,SSW,212,2.0,7.0,48,0.00,,,0.00,meteohub,2013-08-12 02:14:00,
2013-08-11 19:19:00,75.4,54.9,29.91,SSW,202,2.0,7.0,49,0.00,,,0.00,meteohub,2013-08-12 02:19:00,
2013-08-11 19:24:00,74.8,55.0,29.91,SSW,207,4.0,7.0,50,0.00,,,0.00,meteohub,2013-08-12 02:24:00,
2013-08-11 19:29:00,74.1,54.3,29.91,SW,234,3.0,7.0,50,0.00,,,0.00,meteohub,2013-08-12 02:29:00,
2013-08-11 19:34:00,73.6,54.3,29.91,SSW,200,4.0,6.0,51,0.00,,,0.00,meteohub,2013-08-12 02:34:00,
2013-08-11 19:39:00,73.0,54.3,29.91,SSW,195,4.0,7.0,52,0.00,,,0.00,meteohub,2013-08-12 02:39:00,
2013-08-11 19:45:00,72.3,54.7,29.91,South,191,5.0,7.0,54,0.00,,,0.00,meteohub,2013-08-12 02:45:00,
2013-08-11 19:50:00,71.4,54.5,29.91,SSW,195,5.0,7.0,55,0.00,,,0.00,meteohub,2013-08-12 02:50:00,
2013-08-11 19:55:00,70.9,54.9,29.91,SSW,194,4.0,7.0,57,0.00,,,0.00,meteohub,2013-08-12 02:55:00,
2013-08-11 20:00:00,70.0,54.5,29.91,South,169,5.0,6.0,58,0.00,,,0.00,meteohub,2013-08-12 03:00:00,
2013-08-11 20:06:00,69.4,54.9,29.91,South,188,3.0,6.0,60,0.00,,,0.00,meteohub,2013-08-12 03:06:00,
2013-08-11 20:11:00,68.7,54.7,29.91,South,188,2.0,6.0,61,0.00,,,0.00,meteohub,2013-08-12 03:11:00,
2013-08-11 20:16:00,68.4,54.3,29.91,South,188,4.0,6.0,61,0.00,,,0.00,meteohub,2013-08-12 03:16:00,
2013-08-11 20:21:00,67.6,54.1,29.91,South,169,4.0,7.0,62,0.00,,,0.00,meteohub,2013-08-12 03:21:00,
2013-08-11 20:26:00,67.3,54.3,29.91,SSW,200,4.0,7.0,63,0.00,,,0.00,meteohub,2013-08-12 03:26:00,
2013-08-11 20:31:00,66.7,54.1,29.91,SSW,198,2.0,7.0,64,0.00,,,0.00,meteohub,2013-08-12 03:31:00,
2013-08-11 20:36:00,66.4,54.3,29.91,South,174,4.0,5.0,65,0.00,,,0.00,meteohub,2013-08-12 03:36:00,
2013-08-11 20:41:00,65.8,54.5,29.91,South,186,3.0,5.0,67,0.00,,,0.00,meteohub,2013-08-12 03:41:00,
2013-08-11 20:46:00,65.7,54.3,29.91,South,186,3.0,5.0,67,0.00,,,0.00,meteohub,2013-08-12 03:46:00,
2013-08-11 20:51:00,65.3,54.5,29.91,South,186,2.0,5.0,68,0.00,,,0.00,meteohub,2013-08-12 03:51:00,
2013-08-11 20:57:00,64.9,54.9,29.92,South,186,3.0,4.0,70,0.00,,,0.00,meteohub,2013-08-12 03:57:00,
2013-08-11 21:01:00,64.6,54.5,29.92,South,186,2.0,5.0,70,0.00,,,0.00,meteohub,2013-08-12 04:01:00,
2013-08-11 21:02:00,64.4,54.3,29.92,South,186,2.0,5.0,70,0.00,,,0.00,meteohub,2013-08-12 04:02:00,
2013-08-11 21:05:00,64.2,54.7,29.92,South,186,2.0,5.0,71,0.00,,,0.00,meteohub,2013-08-12 04:05:00,
2013-08-11 21:10:00,64.0,54.5,29.92,South,186,1.0,5.0,71,0.00,,,0.00,meteohub,2013-08-12 04:10:00,
2013-08-11 21:15:00,63.9,54.3,29.92,South,186,2.0,5.0,71,0.00,,,0.00,meteohub,2013-08-12 04:15:00,
2013-08-11 21:20:00,63.5,54.3,29.92,South,186,2.0,4.0,72,0.00,,,0.00,meteohub,2013-08-12 04:20:00,
2013-08-11 21:25:00,63.1,54.3,29.92,South,186,2.0,3.0,73,0.00,,,0.00,meteohub,2013-08-12 04:25:00,
2013-08-11 21:30:00,62.8,54.0,29.92,South,186,2.0,3.0,73,0.00,,,0.00,meteohub,2013-08-12 04:30:00,
2013-08-11 21:36:00,62.6,54.1,29.92,South,186,2.0,3.0,74,0.00,,,0.00,meteohub,2013-08-12 04:36:00,
2013-08-11 21:41:00,62.4,54.0,29.93,South,186,2.0,3.0,74,0.00,,,0.00,meteohub,2013-08-12 04:41:00,
2013-08-11 21:46:00,62.2,53.8,29.93,South,186,3.0,5.0,74,0.00,,,0.00,meteohub,2013-08-12 04:46:00,
2013-08-11 21:51:00,62.2,53.8,29.93,South,186,4.0,5.0,74,0.00,,,0.00,meteohub,2013-08-12 04:51:00,
2013-08-11 21:56:00,62.4,54.0,29.93,South,186,3.0,5.0,74,0.00,,,0.00,meteohub,2013-08-12 04:56:00,
2013-08-11 22:01:00,62.8,54.0,29.93,South,188,3.0,5.0,73,0.00,,,0.00,meteohub,2013-08-12 05:01:00,
2013-08-11 22:06:00,62.8,54.0,29.93,SSW,212,3.0,5.0,73,0.00,,,0.00,meteohub,2013-08-12 05:06:00,
2013-08-11 22:11:00,63.0,54.1,29.93,SSW,211,4.0,5.0,73,0.00,,,0.00,meteohub,2013-08-12 05:11:00,
2013-08-11 22:16:00,63.0,54.1,29.93,SSW,211,2.0,5.0,73,0.00,,,0.00,meteohub,2013-08-12 05:16:00,
2013-08-11 22:21:00,62.8,54.0,29.93,SSW,211,2.0,5.0,73,0.00,,,0.00,meteohub,2013-08-12 05:21:00,
2013-08-11 22:26:00,62.6,53.8,29.93,SSW,211,3.0,4.0,73,0.00,,,0.00,meteohub,2013-08-12 05:26:00,
2013-08-11 22:31:00,62.2,53.8,29.93,SSW,211,2.0,5.0,74,0.00,,,0.00,meteohub,2013-08-12 05:31:00,
2013-08-11 22:36:00,61.9,53.8,29.93,SSW,211,2.0,5.0,75,0.00,,,0.00,meteohub,2013-08-12 05:36:00,
2013-08-11 22:41:00,61.5,54.0,29.93,SSW,211,3.0,5.0,76,0.00,,,0.00,meteohub,2013-08-12 05:41:00,
2013-08-11 22:46:00,61.3,53.8,29.93,SSW,211,4.0,4.0,76,0.00,,,0.00,meteohub,2013-08-12 05:46:00,
2013-08-11 22:51:00,61.2,53.6,29.93,SSW,211,2.0,4.0,76,0.00,,,0.00,meteohub,2013-08-12 05:51:00,
2013-08-11 22:56:00,61.2,53.6,29.93,SSW,211,3.0,4.0,76,0.00,,,0.00,meteohub,2013-08-12 05:56:00,
2013-08-11 23:01:00,61.2,53.6,29.93,SSW,211,3.0,4.0,76,0.00,,,0.00,meteohub,2013-08-12 06:01:00,
2013-08-11 23:06:00,61.3,53.8,29.93,SW,214,1.0,4.0,76,0.00,,,0.00,meteohub,2013-08-12 06:06:00,
2013-08-11 23:11:00,61.3,53.8,29.93,SW,214,1.0,4.0,76,0.00,,,0.00,meteohub,2013-08-12 06:11:00,
2013-08-11 23:16:00,61.5,53.6,29.93,South,187,0.0,4.0,75,0.00,,,0.00,meteohub,2013-08-12 06:16:00,
2013-08-11 23:21:00,61.5,53.6,29.92,South,187,0.0,4.0,75,0.00,,,0.00,meteohub,2013-08-12 06:21:00,
2013-08-11 23:26:00,61.5,53.6,29.92,South,187,2.0,4.0,75,0.00,,,0.00,meteohub,2013-08-12 06:26:00,
2013-08-11 23:31:00,61.7,53.2,29.92,South,187,0.0,3.0,74,0.00,,,0.00,meteohub,2013-08-12 06:31:00,
2013-08-11 23:36:00,61.7,53.2,29.92,South,187,2.0,3.0,74,0.00,,,0.00,meteohub,2013-08-12 06:36:00,
2013-08-11 23:41:00,61.7,53.8,29.92,South,187,0.0,3.0,75,0.00,,,0.00,meteohub,2013-08-12 06:41:00,
2013-08-11 23:46:00,61.5,53.6,29.93,South,187,1.0,4.0,75,0.00,,,0.00,meteohub,2013-08-12 06:46:00,
2013-08-11 23:51:00,61.5,53.6,29.93,South,187,1.0,4.0,75,0.00,,,0.00,meteohub,2013-08-12 06:51:00,
2013-08-11 23:56:00,61.5,53.6,29.93,South,187,1.0,4.0,75,0.00,,,0.00,meteohub,2013-08-12 06:56:00,